"Pseudo-MPEC" for P22oDk3

Created 2026 Jul 28 21:35:10 UT using Find_Orb

Click here for an explanation of pseudo-MPECs

 
 Astrometry: 
     P22oDk3*0C2026 07 25.51588323 30 30.493+19 33 01.23   ~7PE5 22.61wXNEOCPF52
     P22oDk3 0C2026 07 25.52752023 30 31.014+19 33 20.04   ~7PE5 22.35wXNEOCPF52
     P22oDk3 0C2026 07 25.53939023 30 31.561+19 33 38.92   ~7PE5 22.03wXNEOCPF52
     P22oDk3 0C2026 07 25.55207623 30 32.136+19 33 59.50   ~7PE5 22.34wXNEOCPF52
     P22oDk3 0C2026 07 25.59999823 30 34.276+19 35 16.18   ~7PLo 22.77GVNEOCPF52
     P22oDk3 0C2026 07 25.60063223 30 34.309+19 35 17.21   ~7PLo 22.10GVNEOCPF52
     P22oDk3 0C2026 07 26.50171523 31 18.741+19 59 16.04   ~7QGZ 21.72GVNEOCPF52
     P22oDk3 0C2026 07 26.51136023 31 19.155+19 59 31.50   ~7QGZ 21.43GVNEOCPF52

Station data:
(F52) Pan-STARRS 2, Haleakala  (N20.707382 W156.255910)  US/Hawaii.
   Observers J. Herman, T. Lowe, P. Minguez, A. Schultz, I. Smith. Measurers
   K. Chambers, T. de Boer, J. Fairlamb, H. Gao, M. Huber, C.-C. Lin, E.
   Magnier, Y. Ramanjooloo, R. Wainscoat, R. Weryk. 1.8-m Ritchey-Chrétien +
   CCD.

Orbital elements:  P22oDk3
   Perihelion 2026 Nov 28.393588 +/- 54 TT =  9:26:46.0 (JD 2461372.893588)
Epoch 2026 Jul 26.0 TT = JDT 2461247.5   Earth MOID: 0.2481      AutoNEOCP
M 305.059374724 +/- 18              (J2000 ecliptic)
n   0.438145410 +/- 0.109           Peri.  145.962513 +/- 38
a   1.716816471 +/- 0.283           Node   269.251293 +/- 3.9
e   0.29364133 +/- 0.115            Incl.   12.232460 +/- 1.2
P   2.249/821.630d         H 20.38  G  0.15   U 11.3  SR
q 1.212688194 +/- 0.112    Q 2.220944748 +/- 1.05
From 8 observations 2026 July 25-26 (23.9 hr); mean residual 0".20
Residuals in arcseconds: 
260725 F52  .12-  .35-    260725 F52  .11+  .05+    260726 F52  .06+  .00     
260725 F52  .16-  .16-    260725 F52  .05+  .38+    260726 F52  .07-  .06-    
260725 F52  .03+  .26-    260725 F52  .11+  .40+    

Ephemerides (geocentric):
Date (UTC) HH   RA             Dec           delta  r     elong  mag " sig PA
---- --------  ------------   ------------  ------ ------ -----  --- --------
2026 07 28 22  23 33 11.164   +21 04 04.42  .75441 1.5396 120.2 22.1 55.8 150
2026 07 28 23  23 33 13.041   +21 05 11.88  .75405 1.5394 120.2 22.1 57.4 150
2026 07 29 00  23 33 14.916   +21 06 19.35  .75368 1.5392 120.2 22.1 59.1 150
2026 07 29 01  23 33 16.789   +21 07 26.83  .75331 1.5391 120.2 22.1 60.9 150
2026 07 29 02  23 33 18.660   +21 08 34.32  .75294 1.5389 120.3 22.1 62.6 150
2026 07 29 03  23 33 20.528   +21 09 41.82  .75258 1.5387 120.3 22.1 64.3 150
2026 07 29 04  23 33 22.394   +21 10 49.34  .75221 1.5386 120.3 22.1 66.1 150
2026 07 29 05  23 33 24.257   +21 11 56.87  .75184 1.5384 120.3 22.1 67.9 150
2026 07 29 06  23 33 26.118   +21 13 04.41  .75147 1.5382 120.3 22.1 69.8 150
2026 07 29 07  23 33 27.977   +21 14 11.97  .75111 1.5381 120.4 22.1 71.6 150
2026 07 29 08  23 33 29.834   +21 15 19.53  .75074 1.5379 120.4 22.1 73.5 150
2026 07 29 09  23 33 31.688   +21 16 27.11  .75038 1.5377 120.4 22.1 75.4 150
2026 07 29 10  23 33 33.539   +21 17 34.70  .75001 1.5375 120.4 22.1 77.4 150
2026 07 29 11  23 33 35.389   +21 18 42.30  .74964 1.5374 120.4 22.1 79.3 150
2026 07 29 12  23 33 37.235   +21 19 49.92  .74928 1.5372 120.4 22.1 81.3 150
2026 07 29 13  23 33 39.080   +21 20 57.55  .74891 1.5370 120.5 22.1 83.3 150
2026 07 29 14  23 33 40.922   +21 22 05.19  .74855 1.5369 120.5 22.1 85.3 150
2026 07 29 15  23 33 42.762   +21 23 12.84  .74818 1.5367 120.5 22.1 87.4 150
2026 07 29 16  23 33 44.600   +21 24 20.50  .74782 1.5365 120.5 22.1 89.5 150
2026 07 29 17  23 33 46.435   +21 25 28.18  .74745 1.5364 120.5 22.1 91.6 150
2026 07 29 18  23 33 48.267   +21 26 35.86  .74709 1.5362 120.6 22.1 93.7 151
2026 07 29 19  23 33 50.098   +21 27 43.56  .74672 1.5360 120.6 22.1 95.8 151
2026 07 29 20  23 33 51.925   +21 28 51.27  .74636 1.5359 120.6 22.1 98.0 151
2026 07 29 21  23 33 53.751   +21 29 59.00  .74599 1.5357 120.6 22.1  100 151
2026 07 29 22  23 33 55.574   +21 31 06.73  .74563 1.5355 120.6 22.1  102 151
2026 07 29 23  23 33 57.395   +21 32 14.48  .74526 1.5354 120.6 22.1  105 151
2026 07 30 00  23 33 59.213   +21 33 22.24  .74490 1.5352 120.7 22.1  107 151
2026 07 30 01  23 34 01.029   +21 34 30.01  .74454 1.5350 120.7 22.1  109 151
2026 07 30 02  23 34 02.843   +21 35 37.79  .74417 1.5349 120.7 22.1  112 151
2026 07 30 03  23 34 04.654   +21 36 45.58  .74381 1.5347 120.7 22.1  114 151
2026 07 30 04  23 34 06.462   +21 37 53.39  .74345 1.5345 120.7 22.1  116 151
2026 07 30 05  23 34 08.269   +21 39 01.21  .74308 1.5344 120.8 22.1  119 151
2026 07 30 06  23 34 10.073   +21 40 09.04  .74272 1.5342 120.8 22.1  121 151
2026 07 30 07  23 34 11.874   +21 41 16.88  .74236 1.5340 120.8 22.1  124 151
2026 07 30 08  23 34 13.673   +21 42 24.73  .74200 1.5339 120.8 22.1  126 151
2026 07 30 09  23 34 15.470   +21 43 32.60  .74163 1.5337 120.8 22.1  128 151
2026 07 30 10  23 34 17.264   +21 44 40.48  .74127 1.5335 120.8 22.1  131 151
2026 07 30 11  23 34 19.056   +21 45 48.36  .74091 1.5334 120.9 22.1  134 151
2026 07 30 12  23 34 20.845   +21 46 56.26  .74055 1.5332 120.9 22.1  136 151
2026 07 30 13  23 34 22.632   +21 48 04.18  .74019 1.5330 120.9 22.1  139 151
2026 07 30 14  23 34 24.416   +21 49 12.10  .73982 1.5329 120.9 22.1  141 151
2026 07 30 15  23 34 26.198   +21 50 20.03  .73946 1.5327 120.9 22.1  144 151
2026 07 30 16  23 34 27.978   +21 51 27.98  .73910 1.5325 121.0 22.1  147 151
2026 07 30 17  23 34 29.755   +21 52 35.94  .73874 1.5324 121.0 22.1  149 151
2026 07 30 18  23 34 31.530   +21 53 43.91  .73838 1.5322 121.0 22.1  152 151
2026 07 30 19  23 34 33.302   +21 54 51.89  .73802 1.5320 121.0 22.1  155 151
2026 07 30 20  23 34 35.072   +21 55 59.88  .73766 1.5319 121.0 22.1  158 151
2026 07 30 21  23 34 36.839   +21 57 07.89  .73730 1.5317 121.0 22.1  160 151